Regional Weather Roundup
Issued by NWS

Home | Current Version | Previous Version | Text Only | Print | Product List | Glossary On
Versions: 1 2 3 4 5 6 7 8 9 10 11 12 13 14 15 16 17 18 19 20 21 22 23 24 25 26 27 28 29 30 31 32 33 34 35 36 37 38 39 40 41 42 43 44 45 46 47 48 49 50
000
ASUS42 KFFC 040610
RWRGA
WEATHER ROUNDUP FOR GEORGIA
NATIONAL WEATHER SERVICE PEACHTREE CITY GA
100 AM EST SUN DEC 04 2016

NOTE: "FAIR" INDICATES FEW OR NO CLOUDS BELOW 12,000 FEET WITH NO
SIGNIFICANT WEATHER AND/OR OBSTRUCTIONS TO VISIBILITY.

* = USE WITH CAUTION. THE STATIONS MARKED WITH AN ASTERISK MAY NOT
REPORT WEATHER SUCH AS PRECIPITATION, FOG, OR THUNDER AND ARE NOT
QUALITY CONTROLLED BY NWS.

THE REMARK "TC" DENOTES TEMPERATURE READING IN DEGREES CELSIUS.

GAZ001>058-040700-
NORTH GEORGIA

CITY           SKY/WX    TMP DP  RH WIND       PRES   REMARKS
ATLANTA        CLOUDY    47  44  90 E12       30.16F
6HR MIN TEMP:  47; 6HR MAX TEMP:  49; 6HR PCP:  0.06;

ATHENS         LGT RAIN  45  45 100 CALM      30.22S
6HR MIN TEMP:  45; 6HR MAX TEMP:  49; 6HR PCP:  0.07;

CHAMBLEE       CLOUDY    46  42  86 CALM      30.19F
6HR MIN TEMP:  45; 6HR MAX TEMP:  49; 6HR PCP:  0.12;

PEACHTREE CITY CLOUDY    47  42  83 SE5       30.16F
6HR MIN TEMP:  46; 6HR MAX TEMP:  47; 6HR PCP:  0.04;

ROME           LGT RAIN  43  41  93 NE6       30.19F FOG
6HR MIN TEMP:  42; 6HR MAX TEMP:  45; 6HR PCP:  0.21;

WEST ATLANTA   CLOUDY    46  43  89 NE6       30.17F
6HR MIN TEMP:  46; 6HR MAX TEMP:  47; 6HR PCP:  0.10;

GAINESVILLE    LGT RAIN  43  42  97 NE5       30.22R
6HR MIN TEMP:  43; 6HR MAX TEMP:  47; 6HR PCP:  0.13;

CARTERSVILLE   LGT RAIN  44  43  96 NE3       30.19F FOG
6HR MIN TEMP:  43; 6HR MAX TEMP:  44; 6HR PCP:  0.11;



CITY           SKY/WX    TMP DP  RH WIND       PRES   REMARKS
DALTON*        LGT RAIN  41  41 100 NW3       30.22S
MARIETTA       CLOUDY    46  43  90 E9        30.16F
CANTON*        DRIZZLE   45  39  81 E6        30.19F
$$

GAZ059>098-102>109-040700-
CENTRAL GEORGIA

CITY           SKY/WX    TMP DP  RH WIND       PRES   REMARKS
AUGUSTA-BUSH   CLOUDY    50  45  83 N3        30.23R
6HR MIN TEMP:  50; 6HR MAX TEMP:  55; 6HR PCP:  0.01;

AUGUSTA-DANIEL CLOUDY    50  41  71 CALM      30.23R
6HR MIN TEMP:  50; 6HR MAX TEMP:  55; 6HR PCP:  0.02;

COLUMBUS       CLOUDY    51  38  60 E9        30.12F
6HR MIN TEMP:  50; 6HR MAX TEMP:  51;

MACON          CLOUDY    53  37  54 NE7       30.18S
6HR MIN TEMP:  53; 6HR MAX TEMP:  56; 6HR PCP: TRACE;

ROBINS AFB     CLOUDY    54  37  54 CALM      30.17S


CITY           SKY/WX    TMP DP  RH WIND       PRES   REMARKS
LAGRANGE*      CLOUDY    49  46  87 E5        30.12F
SYLVANIA*      CLOUDY   N/A N/A N/A SE3       30.22S
MILLEDGEVILLE* CLOUDY    52  45  76 E3        30.21F
$$

GAZ099>101-110>166-040700-
SOUTH GEORGIA

CITY           SKY/WX    TMP DP  RH WIND       PRES   REMARKS
SAVANNAH       CLOUDY    53  41  63 NE7       30.22S
6HR MIN TEMP:  53; 6HR MAX TEMP:  56;

VALDOSTA       MOCLDY    53  49  86 VRB5      30.16F
6HR MIN TEMP:  53; 6HR MAX TEMP:  59;

ALMA           PTCLDY    53  45  74 E3        30.18F
6HR MIN TEMP:  53; 6HR MAX TEMP:  57;

ST SIMONS      CLOUDY    61  49  64 NE13      30.18F
6HR MIN TEMP:  59; 6HR MAX TEMP:  61;

FT STEWART     CLOUDY    53  42  65 CALM      30.18F
ALBANY         CLOUDY    57  42  57 SE8       30.15F
HUNTER AFB     CLOUDY    55  46  72 NE6       30.18F
MOODY AFB      PTCLDY    52  46  79 E5        30.15F
BRUNSWICK      CLOUDY    59  52  77 NE8       30.19S


CITY           SKY/WX    TMP DP  RH WIND       PRES   REMARKS
BAINBRIDGE*    PTCLDY    55  43  62 E6        30.12F
MOULTRIE*      CLOUDY    55  46  71 E8        30.14F
VIDALIA*       CLOUDY    54  46  76 E7        30.18F
WAYCROSS*      PTCLDY    55  52  89 E5        30.18F
DOUGLAS*       CLOUDY    54  45  71 E7        30.18F
$$




USA.gov is the U.S. government's official web portal to all federal, state and local government web resources and services.